Погода в Красной Яруге

Россия / Белгородская область     50°48′03″N   35°39′28″E
темп.,
°C
ветер,
м/с
пор.,
м/с
влажн.,
%
обл.,
%
осадки,
мм/ч
давл.,
гПа
погр.,
м
20 апреля, вт
вт2000:00+7св369120 0.1 1013123
03:00+7в2392100 0.1 101378
06:00+7всв3794100 0.1 1011241
09:00+8в5989100 0.3 1011397
12:00+9в5889100 1.1 1009611
15:00+11всв5676100 1.4 1006817
18:00+9св61193100 3.3 1004717
21:00+8св5995100 5.4 1003594
21 апреля, ср
ср2100:00+7ссз6995100 1.8 1002428
03:00+6сз4794100 1.9 1004438
06:00+6зсз3693100 0.0 1006448
09:00+6зюз2493100 0.4 1009302
12:00+9зюз687683 0.3 1010966
15:00+11зюз596665 0.8 10121385
18:00+10зюз597295 0.8 1013676
21:00+7зсз238725 1.1 101562
22 апреля, чт
чт2200:00+5юз22895 0.0 101613
03:00+5ююз33905 0.0 101741
06:00+5ююз35895 0.0 101890
09:00+10ююз5871100 0.0 1019434
12:00+13юз576396 0.3 10191092
15:00+15юз585251 1.4 10181840
18:00+12ююз237470 0.8 101978
21:00+11ююв377896 0.9 1019126
23 апреля, пт
пт2300:00+11ю5127233 0.0 1019264
03:00+10ю4978100 0.0 1019229
06:00+10ю4981100 0.0 1018234
09:00+13ю69685 0.0 1018619
12:00+16ююз8105083 0.0 10171722
15:00+17ююз894982 0.0 10162409
18:00+14ю71161100 0.5 1015748
21:00+11ююз6147599 1.6 1015485
24 апреля, сб
сб2400:00+10юз41190100 1.1 1014725
03:00+8з2494100 2.0 1012398
06:00+4сз5996100 4.0 1014664
09:00+6зсз5883100 5.1 1015849
12:00+9зсз79475 0.2 10151883
15:00+9з8105268 0.4 10151808
18:00+8з695461 0.2 10161672
21:00+6з5966100 0.3 1017629